PHASE 3B (AO-10) (14129 NORAD) Tracking and Keplerian Element Data

This shows tracking and keplerian element data for the satellite.

Feedback or suggestion? Click here.




ElementValue
Catalog14129
NamePHASE 3B (AO-10)
Epoch Orbit28287
Epoch Day286.4363376
Epoch Year2024
RAAN320.6202
Inclination27.3564
Eccentricity0.6034805
Argument of Perigee308.2361
Mean Anonmoly11.3816
Mean Motion2.05865352
Decay Rate3.34E-06
L11 14129U 83058B 24286.43633760 .00000334 00000+0 00000+0 0 9993
L22 14129 27.3564 320.6202 6034805 308.2361 11.3816 2.05865352282873



Live tracking and technical data element details for PHASE 3B (AO-10) (NORAD 14129). PHASE 3B (AO-10) can be tracked NOW for your location showing map with azimuth and elevation plus other details from your city location.







IsCatalogInMostPopularTable: catalog: 14129, numindb: 211
Update: records affected: 1



GetName: 14129 PHASE 3B (AO-10)

Hit Count: updated at: Thu, 23 Jan 2025 18:01:05 GMT